Flag for France Weather past 2 weeks in Toulouse, France

61 °F

Passing clouds.

Feels Like: 61 °F
Forecast: 61 / 79 °F
Wind: 7 mph from Southeast

Location: Toulouse / Blagnac

Current Time: Oct 4, 2015 at 12:25:19 PM

Latest Report: Oct 4, 2015 at 12:00 PM

Visibility: N/A

Pressure: 30.04 "Hg

Humidity: 63%

Dew point: 48 °F

Location of ToulouseLocation

Historic Weather in Toulouse — Graph


Toulouse temperature yesterday

Maximum temperature yesterday: 66 °F (at 5:00 PM)
Minimum temperature yesterday: 54 °F (at 10:30 PM)
Average temperature yesterday: 59 °F

Past Weeks' High & Low Weather Summary

High75 °F (Sep 21, 3:30 PM)100% (Sep 21, 4:00 AM)30.30 "Hg (Sep 21, 4:00 AM)
Low45 °F (Oct 4, 6:30 AM)29% (Oct 1, 4:00 PM)29.89 "Hg (Sep 22, 4:00 PM)
Average61 °F71%30.11 "Hg
* Reported Sep 19 11:00 AM — Oct 4 11:00 AM, Toulouse, Weather by CustomWeather, © 2015

Note: Actual official high and low records may vary slightly from our data, if they occured in-between our weather recording intervals... More about our weather records


Toulouse weather history for previous 24 hours

Time TempWeatherWind HumidityBarometerVisibility
11:00 AM
Sun, Oct 4
54 °FPassing clouds.5 mph82%30.04 "HgN/A
10:30 AM52 °FSunny.6 mph88%30.04 "Hg10 mi
10:00 AM50 °FSunny.6 mph88%30.07 "Hg10 mi
9:30 AM50 °FSunny.7 mph88%30.07 "Hg10 mi
9:00 AM48 °FPassing clouds.5 mph94%30.07 "HgN/A
8:30 AM48 °FClear.6 mph94%30.07 "Hg10 mi
8:00 AM46 °FClear.3 mph93%30.07 "Hg10 mi
7:30 AM46 °FClear.3 mph100%30.07 "Hg10 mi
7:00 AM46 °FClear.3 mph93%30.07 "Hg10 mi
6:30 AM45 °FClear.3 mph100%30.09 "Hg10 mi
6:00 AM46 °FClear.1 mph93%30.09 "Hg10 mi
5:30 AM46 °FClear.2 mph93%30.09 "Hg10 mi
5:00 AM46 °FClear.2 mph93%30.09 "Hg10 mi
4:30 AM46 °FClear.2 mph93%30.09 "Hg10 mi
4:00 AM46 °FClear.3 mph93%30.09 "Hg10 mi
3:30 AM46 °FClear.3 mph100%30.09 "Hg10 mi
3:00 AM48 °FClear.2 mph94%30.09 "Hg10 mi
2:30 AM48 °FClear.No wind94%30.09 "Hg10 mi
2:00 AM50 °FClear.No wind88%30.09 "Hg10 mi
1:30 AM50 °FClear.2 mph88%30.09 "Hg10 mi
1:00 AM50 °FClear.3 mph88%30.09 "Hg10 mi
12:30 AM50 °FClear.5 mph88%30.09 "Hg10 mi
11:30 PM
Sat, Oct 3
54 °FClear.2 mph77%30.09 "Hg10 mi
11:00 PM54 °FPassing clouds.3 mph77%30.07 "HgN/A
10:30 PM54 °FClear.1 mph82%30.07 "Hg10 mi
10:00 PM55 °FClear.No wind72%30.07 "Hg10 mi
9:30 PM57 °FClear.1 mph67%30.07 "Hg10 mi
9:00 PM57 °FClear.3 mph63%30.04 "Hg10 mi
8:30 PM59 °FSunny.2 mph59%30.04 "Hg10 mi
8:00 PM61 °FSunny.2 mph52%30.04 "Hg10 mi
7:30 PM61 °FSunny.3 mph52%30.04 "Hg10 mi
7:00 PM63 °FSunny.3 mph49%30.04 "Hg10 mi
6:30 PM63 °FPassing clouds.5 mph49%30.01 "HgN/A
6:00 PM63 °FScattered clouds.5 mph49%30.01 "HgN/A
5:30 PM63 °FScattered clouds.6 mph49%30.01 "HgN/A
5:00 PM66 °FBroken clouds.7 mph40%30.01 "HgN/A
4:30 PM64 °FBroken clouds.12 mph43%30.01 "HgN/A
4:00 PM64 °FPartly sunny.12 mph40%30.01 "HgN/A
3:30 PM64 °FBroken clouds.12 mph49%30.01 "HgN/A
3:00 PM63 °FMore clouds than sun.10 mph56%30.01 "HgN/A
2:30 PM63 °FMostly cloudy.13 mph56%30.01 "HgN/A
2:00 PM61 °FMostly cloudy.13 mph63%30.01 "HgN/A
1:30 PM61 °FBroken clouds.12 mph68%30.01 "HgN/A
1:00 PM61 °FPartly sunny.13 mph68%30.01 "HgN/A
12:30 PM61 °FPartly sunny.13 mph68%30.01 "HgN/A
12:00 PM61 °FPartly sunny.12 mph72%30.01 "HgN/A
Weather by CustomWeather, © 2015

See weather overviewHow to use our weather pages